date,time,SUV Intensity [MED/Hr],UV Index,Daily total [MED],Since Last [MED]
03/01/2022,00:02:52,0.000,0.0,0.0,0.0
03/01/2022,00:03:53,0.000,0.0,0.0,0.0
03/01/2022,00:04:54,0.001,0.0,0.0,0.0
03/01/2022,00:05:54,0.000,0.0,0.0,0.0
03/01/2022,00:06:52,0.000,0.0,0.0,0.0
03/01/2022,00:07:53,0.000,0.0,0.0,0.0
03/01/2022,00:08:53,0.001,0.0,0.0,0.0
03/01/2022,00:09:54,0.000,0.0,0.0,0.0
03/01/2022,00:10:52,0.000,0.0,0.0,0.0
03/01/2022,00:11:53,0.001,0.0,0.0,0.0
03/01/2022,00:12:52,0.000,0.0,0.0,0.0
03/01/2022,00:13:53,-0.000,0.0,0.0,0.0
03/01/2022,00:14:53,0.000,0.0,0.0,0.0
03/01/2022,00:15:53,0.000,0.0,0.0,0.0
03/01/2022,00:16:53,0.000,0.0,0.0,0.0
03/01/2022,00:17:53,-0.000,0.0,0.0,0.0
03/01/2022,00:18:53,0.000,0.0,0.0,0.0
03/01/2022,00:19:52,-0.001,0.0,0.0,0.0
03/01/2022,00:20:53,0.000,0.0,0.0,0.0
03/01/2022,00:21:53,0.000,0.0,0.0,0.0
03/01/2022,00:22:54,-0.000,0.0,0.0,0.0
03/01/2022,00:23:53,0.001,0.0,0.0,0.0
03/01/2022,00:24:54,-0.000,0.0,0.0,0.0
03/01/2022,00:25:53,-0.001,0.0,0.0,0.0
03/01/2022,00:26:54,0.000,0.0,0.0,0.0
03/01/2022,00:27:53,0.000,0.0,0.0,0.0
03/01/2022,00:28:53,0.000,0.0,0.0,0.0
03/01/2022,00:29:54,-0.001,0.0,0.0,0.0
03/01/2022,00:30:53,-0.000,0.0,0.0,0.0
03/01/2022,00:31:52,-0.001,0.0,0.0,0.0
03/01/2022,00:32:54,-0.001,0.0,0.0,0.0
03/01/2022,00:33:53,-0.000,0.0,0.0,0.0
03/01/2022,00:34:53,0.000,0.0,0.0,0.0
03/01/2022,00:35:53,0.000,0.0,0.0,0.0
03/01/2022,00:36:54,0.000,0.0,0.0,0.0
03/01/2022,00:37:53,0.001,0.0,0.0,0.0
03/01/2022,00:38:53,-0.002,0.0,0.0,0.0
03/01/2022,00:39:53,-0.000,0.0,0.0,0.0
03/01/2022,00:40:53,0.000,0.0,0.0,0.0
03/01/2022,00:41:53,0.000,0.0,0.0,0.0
03/01/2022,00:42:53,0.001,0.0,0.0,0.0
03/01/2022,00:43:54,0.000,0.0,0.0,0.0
03/01/2022,00:44:53,0.000,0.0,0.0,0.0
03/01/2022,00:45:54,0.000,0.0,0.0,0.0
03/01/2022,00:46:52,0.001,0.0,0.0,0.0
03/01/2022,00:47:53,-0.000,0.0,0.0,0.0
03/01/2022,00:48:53,-0.001,0.0,0.0,0.0
03/01/2022,00:49:53,0.001,0.0,0.0,0.0
03/01/2022,00:50:53,0.001,0.0,0.0,0.0
03/01/2022,00:51:53,-0.000,0.0,0.0,0.0
03/01/2022,00:52:53,0.001,0.0,0.0,0.0
03/01/2022,00:53:53,-0.000,0.0,0.0,0.0
03/01/2022,00:54:52,-0.000,0.0,0.0,0.0
03/01/2022,00:55:53,0.000,0.0,0.0,0.0
03/01/2022,00:56:53,0.000,0.0,0.0,0.0
03/01/2022,00:57:53,0.000,0.0,0.0,0.0
03/01/2022,00:58:54,0.000,0.0,0.0,0.0
03/01/2022,00:59:53,0.000,0.0,0.0,0.0
03/01/2022,01:00:53,0.000,0.0,0.0,0.0
03/01/2022,01:01:53,0.000,0.0,0.0,0.0
03/01/2022,01:02:53,0.000,0.0,0.0,0.0
03/01/2022,01:04:02,-0.001,0.0,0.0,0.0
03/01/2022,01:04:53,-0.001,0.0,0.0,0.0
03/01/2022,01:05:53,-0.000,0.0,0.0,0.0
03/01/2022,01:06:53,0.000,0.0,0.0,0.0
03/01/2022,01:07:54,0.000,0.0,0.0,0.0
03/01/2022,01:08:53,0.000,0.0,0.0,0.0
03/01/2022,01:09:53,0.000,0.0,0.0,0.0
03/01/2022,01:10:53,0.000,0.0,0.0,0.0
03/01/2022,01:11:53,0.000,0.0,0.0,0.0
03/01/2022,01:12:53,0.000,0.0,0.0,0.0
03/01/2022,01:13:52,0.000,0.0,0.0,0.0
03/01/2022,01:14:54,0.000,0.0,0.0,0.0
03/01/2022,01:15:53,0.000,0.0,0.0,0.0
03/01/2022,01:16:53,-0.000,0.0,0.0,0.0
03/01/2022,01:17:53,0.000,0.0,0.0,0.0
03/01/2022,01:18:54,-0.000,0.0,0.0,0.0
03/01/2022,01:19:53,0.001,0.0,0.0,0.0
03/01/2022,01:20:53,0.000,0.0,0.0,0.0
03/01/2022,01:21:53,0.000,0.0,0.0,0.0
03/01/2022,01:22:53,-0.001,0.0,0.0,0.0
03/01/2022,01:23:53,-0.001,0.0,0.0,0.0
03/01/2022,01:24:54,0.000,0.0,0.0,0.0
03/01/2022,01:25:52,0.000,0.0,0.0,0.0
03/01/2022,01:26:54,0.001,0.0,0.0,0.0
03/01/2022,01:27:53,0.000,0.0,0.0,0.0
03/01/2022,01:28:53,0.000,0.0,0.0,0.0
03/01/2022,01:29:53,-0.000,0.0,0.0,0.0
03/01/2022,01:31:45,-0.000,0.0,0.0,0.0
03/01/2022,01:32:52,0.001,0.0,0.0,0.0
03/01/2022,01:33:53,0.000,0.0,0.0,0.0
03/01/2022,01:34:53,-0.000,0.0,0.0,0.0
03/01/2022,01:35:53,0.000,0.0,0.0,0.0
03/01/2022,01:36:54,-0.001,0.0,0.0,0.0
03/01/2022,01:37:53,-0.000,0.0,0.0,0.0
03/01/2022,01:38:54,0.000,0.0,0.0,0.0
03/01/2022,01:39:53,-0.000,0.0,0.0,0.0
03/01/2022,01:40:54,-0.000,0.0,0.0,0.0
03/01/2022,01:41:53,0.001,0.0,0.0,0.0
03/01/2022,01:42:52,0.001,0.0,0.0,0.0
03/01/2022,01:43:53,0.001,0.0,0.0,0.0
03/01/2022,01:44:53,-0.000,0.0,0.0,0.0
03/01/2022,01:45:54,-0.001,0.0,0.0,0.0
03/01/2022,01:46:53,0.000,0.0,0.0,0.0
03/01/2022,01:47:53,-0.000,0.0,0.0,0.0
03/01/2022,01:48:53,0.000,0.0,0.0,0.0
03/01/2022,01:49:52,-0.001,0.0,0.0,0.0
03/01/2022,01:50:53,-0.000,0.0,0.0,0.0
03/01/2022,01:51:53,0.001,0.0,0.0,0.0
03/01/2022,01:52:55,-0.000,0.0,0.0,0.0
03/01/2022,01:53:54,0.001,0.0,0.0,0.0
03/01/2022,01:54:53,0.000,0.0,0.0,0.0
03/01/2022,01:55:52,-0.000,0.0,0.0,0.0
03/01/2022,01:56:53,-0.000,0.0,0.0,0.0
03/01/2022,01:57:54,-0.001,0.0,0.0,0.0
03/01/2022,01:58:53,-0.000,0.0,0.0,0.0
03/01/2022,01:59:53,0.000,0.0,0.0,0.0
03/01/2022,02:00:53,0.000,0.0,0.0,0.0
03/01/2022,02:01:54,0.000,0.0,0.0,0.0
03/01/2022,02:02:52,0.000,0.0,0.0,0.0
03/01/2022,02:03:53,0.000,0.0,0.0,0.0
03/01/2022,02:04:53,-0.000,0.0,0.0,0.0
03/01/2022,02:05:53,0.000,0.0,0.0,0.0
03/01/2022,02:06:54,0.000,0.0,0.0,0.0
03/01/2022,02:07:54,0.000,0.0,0.0,0.0
03/01/2022,02:08:53,0.000,0.0,0.0,0.0
03/01/2022,02:09:53,0.000,0.0,0.0,0.0
03/01/2022,02:10:53,0.000,0.0,0.0,0.0
03/01/2022,02:11:54,-0.000,0.0,0.0,0.0
03/01/2022,02:12:53,0.000,0.0,0.0,0.0
03/01/2022,02:13:53,0.000,0.0,0.0,0.0
03/01/2022,02:14:53,0.000,0.0,0.0,0.0
03/01/2022,02:15:52,0.001,0.0,0.0,0.0
03/01/2022,02:16:53,0.000,0.0,0.0,0.0
03/01/2022,02:17:53,-0.001,0.0,0.0,0.0
03/01/2022,02:18:53,0.001,0.0,0.0,0.0
03/01/2022,02:19:53,0.000,0.0,0.0,0.0
03/01/2022,02:20:53,0.000,0.0,0.0,0.0
03/01/2022,02:21:53,0.001,0.0,0.0,0.0
03/01/2022,02:22:54,0.000,0.0,0.0,0.0
03/01/2022,02:23:53,0.000,0.0,0.0,0.0
03/01/2022,02:24:53,0.000,0.0,0.0,0.0
03/01/2022,02:25:53,0.000,0.0,0.0,0.0
03/01/2022,02:26:53,-0.001,0.0,0.0,0.0
03/01/2022,02:27:54,-0.000,0.0,0.0,0.0
03/01/2022,02:28:54,0.000,0.0,0.0,0.0
03/01/2022,02:29:53,0.000,0.0,0.0,0.0
03/01/2022,02:31:53,-0.000,0.0,0.0,0.0
03/01/2022,02:32:52,-0.000,0.0,0.0,0.0
03/01/2022,02:33:53,0.000,0.0,0.0,0.0
03/01/2022,02:34:53,-0.000,0.0,0.0,0.0
03/01/2022,02:35:53,-0.001,0.0,0.0,0.0
03/01/2022,02:36:54,0.000,0.0,0.0,0.0
03/01/2022,02:37:53,0.000,0.0,0.0,0.0
03/01/2022,02:38:53,-0.000,0.0,0.0,0.0
03/01/2022,02:39:54,-0.000,0.0,0.0,0.0
03/01/2022,02:40:53,-0.000,0.0,0.0,0.0
03/01/2022,02:41:54,-0.000,0.0,0.0,0.0
03/01/2022,02:42:53,-0.001,0.0,0.0,0.0
03/01/2022,02:43:54,0.000,0.0,0.0,0.0
03/01/2022,02:44:53,-0.001,0.0,0.0,0.0
03/01/2022,02:45:53,-0.000,0.0,0.0,0.0
03/01/2022,02:46:53,-0.000,0.0,0.0,0.0
03/01/2022,02:47:53,-0.001,0.0,0.0,0.0
03/01/2022,02:48:53,-0.000,0.0,0.0,0.0
03/01/2022,02:49:53,0.000,0.0,0.0,0.0
03/01/2022,02:50:54,-0.000,0.0,0.0,0.0
03/01/2022,02:51:53,-0.000,0.0,0.0,0.0
03/01/2022,02:52:54,-0.000,0.0,0.0,0.0
03/01/2022,02:53:53,-0.000,0.0,0.0,0.0
03/01/2022,02:54:54,0.000,0.0,0.0,0.0
03/01/2022,02:55:54,-0.000,0.0,0.0,0.0
03/01/2022,02:56:53,-0.000,0.0,0.0,0.0
03/01/2022,02:57:55,-0.000,0.0,0.0,0.0
03/01/2022,02:58:53,-0.000,0.0,0.0,0.0
03/01/2022,02:59:53,-0.000,0.0,0.0,0.0
03/01/2022,03:00:54,-0.000,0.0,0.0,0.0
03/01/2022,03:01:54,-0.000,0.0,0.0,0.0
03/01/2022,03:02:52,-0.000,0.0,0.0,0.0
03/01/2022,03:03:53,-0.000,0.0,0.0,0.0
03/01/2022,03:04:54,-0.000,0.0,0.0,0.0
03/01/2022,03:05:53,0.001,0.0,0.0,0.0
03/01/2022,03:06:54,-0.000,0.0,0.0,0.0
03/01/2022,03:07:53,0.000,0.0,0.0,0.0
03/01/2022,03:08:53,-0.000,0.0,0.0,0.0
03/01/2022,03:09:53,-0.000,0.0,0.0,0.0
03/01/2022,03:10:54,-0.001,0.0,0.0,0.0
03/01/2022,03:11:54,-0.000,0.0,0.0,0.0
03/01/2022,03:12:53,-0.001,0.0,0.0,0.0
03/01/2022,03:13:53,-0.001,0.0,0.0,0.0
03/01/2022,03:14:54,-0.000,0.0,0.0,0.0
03/01/2022,03:15:53,0.000,0.0,0.0,0.0
03/01/2022,03:16:54,-0.000,0.0,0.0,0.0
03/01/2022,03:17:53,-0.000,0.0,0.0,0.0
03/01/2022,03:18:54,-0.000,0.0,0.0,0.0
03/01/2022,03:19:54,-0.000,0.0,0.0,0.0
03/01/2022,03:20:53,0.001,0.0,0.0,0.0
03/01/2022,03:21:53,-0.000,0.0,0.0,0.0
03/01/2022,03:22:53,-0.000,0.0,0.0,0.0
03/01/2022,03:23:54,0.000,0.0,0.0,0.0
03/01/2022,03:24:54,0.001,0.0,0.0,0.0
03/01/2022,03:25:53,0.001,0.0,0.0,0.0
03/01/2022,03:26:53,-0.001,0.0,0.0,0.0
03/01/2022,03:27:54,0.001,0.0,0.0,0.0
03/01/2022,03:28:54,-0.001,0.0,0.0,0.0
03/01/2022,03:29:53,-0.000,0.0,0.0,0.0
03/01/2022,03:30:53,-0.000,0.0,0.0,0.0
03/01/2022,03:31:54,-0.000,0.0,0.0,0.0
03/01/2022,03:32:52,0.000,0.0,0.0,0.0
03/01/2022,03:33:53,-0.000,0.0,0.0,0.0
03/01/2022,03:34:53,-0.001,0.0,0.0,0.0
03/01/2022,03:35:54,-0.000,0.0,0.0,0.0
03/01/2022,03:36:54,-0.001,0.0,0.0,0.0
03/01/2022,03:37:54,0.000,0.0,0.0,0.0
03/01/2022,03:38:53,-0.000,0.0,0.0,0.0
03/01/2022,03:39:54,-0.000,0.0,0.0,0.0
03/01/2022,03:40:53,-0.000,0.0,0.0,0.0
03/01/2022,03:41:53,0.000,0.0,0.0,0.0
03/01/2022,03:42:54,-0.000,0.0,0.0,0.0
03/01/2022,03:43:53,-0.000,0.0,0.0,0.0
03/01/2022,03:44:53,-0.000,0.0,0.0,0.0
03/01/2022,03:45:53,-0.000,0.0,0.0,0.0
03/01/2022,03:46:54,-0.000,0.0,0.0,0.0
03/01/2022,03:47:53,-0.001,0.0,0.0,0.0
03/01/2022,03:48:54,-0.000,0.0,0.0,0.0
03/01/2022,03:49:54,0.000,0.0,0.0,0.0
03/01/2022,03:50:53,0.000,0.0,0.0,0.0
03/01/2022,03:51:54,-0.000,0.0,0.0,0.0
03/01/2022,03:52:54,0.001,0.0,0.0,0.0
03/01/2022,03:53:54,-0.001,0.0,0.0,0.0
03/01/2022,03:54:53,-0.000,0.0,0.0,0.0
03/01/2022,03:55:54,0.000,0.0,0.0,0.0
03/01/2022,03:56:54,0.000,0.0,0.0,0.0
03/01/2022,03:57:55,-0.000,0.0,0.0,0.0
03/01/2022,03:58:53,-0.000,0.0,0.0,0.0
03/01/2022,03:59:54,-0.000,0.0,0.0,0.0
03/01/2022,04:00:53,-0.001,0.0,0.0,0.0
03/01/2022,04:01:53,-0.000,0.0,0.0,0.0
03/01/2022,04:02:53,-0.000,0.0,0.0,0.0
03/01/2022,04:03:53,0.000,0.0,0.0,0.0
03/01/2022,04:04:54,0.000,0.0,0.0,0.0
03/01/2022,04:05:53,0.001,0.0,0.0,0.0
03/01/2022,04:06:53,0.000,0.0,0.0,0.0
03/01/2022,04:07:53,-0.001,0.0,0.0,0.0
03/01/2022,04:08:54,0.001,0.0,0.0,0.0
03/01/2022,04:09:54,-0.001,0.0,0.0,0.0
03/01/2022,04:10:53,0.000,0.0,0.0,0.0
03/01/2022,04:11:53,0.000,0.0,0.0,0.0
03/01/2022,04:12:56,0.001,0.0,0.0,0.0
03/01/2022,04:13:53,0.000,0.0,0.0,0.0
03/01/2022,04:14:53,0.000,0.0,0.0,0.0
03/01/2022,04:15:53,0.000,0.0,0.0,0.0
03/01/2022,04:16:54,0.000,0.0,0.0,0.0
03/01/2022,04:17:54,0.001,0.0,0.0,0.0
03/01/2022,04:19:46,0.000,0.0,0.0,0.0
03/01/2022,04:20:53,-0.001,0.0,0.0,0.0
03/01/2022,04:21:54,0.000,0.0,0.0,0.0
03/01/2022,04:22:53,0.001,0.0,0.0,0.0
03/01/2022,04:23:54,0.001,0.0,0.0,0.0
03/01/2022,04:24:53,-0.000,0.0,0.0,0.0
03/01/2022,04:25:53,0.000,0.0,0.0,0.0
03/01/2022,04:26:53,-0.001,0.0,0.0,0.0
03/01/2022,04:27:54,0.000,0.0,0.0,0.0
03/01/2022,04:28:54,0.000,0.0,0.0,0.0
03/01/2022,04:29:53,0.000,0.0,0.0,0.0
03/01/2022,04:30:53,0.000,0.0,0.0,0.0
03/01/2022,04:31:53,0.000,0.0,0.0,0.0
03/01/2022,04:32:53,-0.002,0.0,0.0,0.0
03/01/2022,04:33:54,0.000,0.0,0.0,0.0
03/01/2022,04:34:54,0.000,0.0,0.0,0.0
03/01/2022,04:35:53,0.000,0.0,0.0,0.0
03/01/2022,04:36:54,0.001,0.0,0.0,0.0
03/01/2022,04:37:53,0.001,0.0,0.0,0.0
03/01/2022,04:38:54,0.000,0.0,0.0,0.0
03/01/2022,04:39:53,0.001,0.0,0.0,0.0
03/01/2022,04:40:54,-0.000,0.0,0.0,0.0
03/01/2022,04:41:56,-0.000,0.0,0.0,0.0
03/01/2022,04:42:54,0.000,0.0,0.0,0.0
03/01/2022,04:43:53,0.001,0.0,0.0,0.0
03/01/2022,04:44:54,-0.001,0.0,0.0,0.0
03/01/2022,04:45:54,0.000,0.0,0.0,0.0
03/01/2022,04:46:54,0.001,0.0,0.0,0.0
03/01/2022,04:47:53,0.000,0.0,0.0,0.0
03/01/2022,04:48:53,-0.000,0.0,0.0,0.0
03/01/2022,04:49:54,0.000,0.0,0.0,0.0
03/01/2022,04:50:53,0.000,0.0,0.0,0.0
03/01/2022,04:51:54,0.000,0.0,0.0,0.0
03/01/2022,04:52:53,-0.000,0.0,0.0,0.0
03/01/2022,04:53:54,-0.000,0.0,0.0,0.0
03/01/2022,04:54:53,0.000,0.0,0.0,0.0
03/01/2022,04:55:54,-0.000,0.0,0.0,0.0
03/01/2022,04:56:53,-0.000,0.0,0.0,0.0
03/01/2022,04:57:54,0.000,0.0,0.0,0.0
03/01/2022,04:58:53,0.001,0.0,0.0,0.0
03/01/2022,04:59:54,0.001,0.0,0.0,0.0
03/01/2022,05:00:54,0.001,0.0,0.0,0.0
03/01/2022,05:01:53,-0.000,0.0,0.0,0.0
03/01/2022,05:02:54,0.000,0.0,0.0,0.0
03/01/2022,05:03:54,0.000,0.0,0.0,0.0
03/01/2022,05:04:53,0.001,0.0,0.0,0.0
03/01/2022,05:05:54,-0.001,0.0,0.0,0.0
03/01/2022,05:06:54,0.000,0.0,0.0,0.0
03/01/2022,05:07:53,-0.000,0.0,0.0,0.0
03/01/2022,05:08:54,0.000,0.0,0.0,0.0
03/01/2022,05:09:53,0.001,0.0,0.0,0.0
03/01/2022,05:10:54,-0.001,0.0,0.0,0.0
03/01/2022,05:11:53,0.000,0.0,0.0,0.0
03/01/2022,05:12:54,0.001,0.0,0.0,0.0
03/01/2022,05:13:52,0.000,0.0,0.0,0.0
03/01/2022,05:14:53,0.001,0.0,0.0,0.0
03/01/2022,05:15:54,0.000,0.0,0.0,0.0
03/01/2022,05:16:53,-0.000,0.0,0.0,0.0
03/01/2022,05:17:54,0.000,0.0,0.0,0.0
03/01/2022,05:18:53,0.000,0.0,0.0,0.0
03/01/2022,05:19:54,0.001,0.0,0.0,0.0
03/01/2022,05:20:53,0.000,0.0,0.0,0.0
03/01/2022,05:21:53,0.000,0.0,0.0,0.0
03/01/2022,05:22:53,0.000,0.0,0.0,0.0
03/01/2022,05:23:54,0.001,0.0,0.0,0.0
03/01/2022,05:24:54,0.000,0.0,0.0,0.0
03/01/2022,05:25:53,0.000,0.0,0.0,0.0
03/01/2022,05:26:53,0.000,0.0,0.0,0.0
03/01/2022,05:27:54,-0.000,0.0,0.0,0.0
03/01/2022,05:28:53,0.000,0.0,0.0,0.0
03/01/2022,05:29:54,-0.001,0.0,0.0,0.0
03/01/2022,05:30:53,0.001,0.0,0.0,0.0
03/01/2022,05:31:54,0.000,0.0,0.0,0.0
03/01/2022,05:32:53,0.000,0.0,0.0,0.0
03/01/2022,05:33:54,0.001,0.0,0.0,0.0
03/01/2022,05:34:53,0.001,0.0,0.0,0.0
03/01/2022,05:35:54,0.000,0.0,0.0,0.0
03/01/2022,05:36:54,-0.001,0.0,0.0,0.0
03/01/2022,05:37:53,0.000,0.0,0.0,0.0
03/01/2022,05:38:54,-0.001,0.0,0.0,0.0
03/01/2022,05:39:53,0.000,0.0,0.0,0.0
03/01/2022,05:40:54,0.000,0.0,0.0,0.0
03/01/2022,05:41:53,0.000,0.0,0.0,0.0
03/01/2022,05:42:54,0.000,0.0,0.0,0.0
03/01/2022,05:43:53,0.000,0.0,0.0,0.0
03/01/2022,05:44:54,0.000,0.0,0.0,0.0
03/01/2022,05:46:01,0.001,0.0,0.0,0.0
03/01/2022,05:46:53,0.000,0.0,0.0,0.0
03/01/2022,05:47:54,0.001,0.0,0.0,0.0
03/01/2022,05:48:54,0.000,0.0,0.0,0.0
03/01/2022,05:49:53,0.000,0.0,0.0,0.0
03/01/2022,05:50:53,0.000,0.0,0.0,0.0
03/01/2022,05:51:53,0.000,0.0,0.0,0.0
03/01/2022,05:52:54,-0.000,0.0,0.0,0.0
03/01/2022,05:53:54,-0.000,0.0,0.0,0.0
03/01/2022,05:55:46,0.000,0.0,0.0,0.0
03/01/2022,05:56:53,0.000,0.0,0.0,0.0
03/01/2022,05:57:54,0.000,0.0,0.0,0.0
03/01/2022,05:58:53,0.000,0.0,0.0,0.0
03/01/2022,05:59:54,0.000,0.0,0.0,0.0
03/01/2022,06:00:54,0.000,0.0,0.0,0.0
03/01/2022,06:01:53,-0.001,0.0,0.0,0.0
03/01/2022,06:02:53,0.000,0.0,0.0,0.0
03/01/2022,06:03:54,0.001,0.0,0.0,0.0
03/01/2022,06:04:53,0.001,0.0,0.0,0.0
03/01/2022,06:05:54,-0.001,0.0,0.0,0.0
03/01/2022,06:06:53,0.000,0.0,0.0,0.0
03/01/2022,06:07:54,0.001,0.0,0.0,0.0
03/01/2022,06:08:53,0.000,0.0,0.0,0.0
03/01/2022,06:09:54,0.000,0.0,0.0,0.0
03/01/2022,06:10:53,0.000,0.0,0.0,0.0
03/01/2022,06:11:54,0.000,0.0,0.0,0.0
03/01/2022,06:12:53,0.000,0.0,0.0,0.0
03/01/2022,06:13:53,0.000,0.0,0.0,0.0
03/01/2022,06:14:54,0.000,0.0,0.0,0.0
03/01/2022,06:15:53,-0.001,0.0,0.0,0.0
03/01/2022,06:16:53,0.000,0.0,0.0,0.0
03/01/2022,06:17:55,0.000,0.0,0.0,0.0
03/01/2022,06:18:53,0.001,0.0,0.0,0.0
03/01/2022,06:19:53,0.001,0.0,0.0,0.0
03/01/2022,06:20:54,0.001,0.0,0.0,0.0
03/01/2022,06:21:53,0.001,0.0,0.0,0.0
03/01/2022,06:22:53,-0.001,0.0,0.0,0.0
03/01/2022,06:23:54,0.001,0.0,0.0,0.0
03/01/2022,06:24:54,0.001,0.0,0.0,0.0
03/01/2022,06:25:53,-0.001,0.0,0.0,0.0
03/01/2022,06:26:54,-0.001,0.0,0.0,0.0
03/01/2022,06:27:53,0.000,0.0,0.0,0.0
03/01/2022,06:28:54,0.001,0.0,0.0,0.0
03/01/2022,06:29:54,-0.000,0.0,0.0,0.0
03/01/2022,06:30:53,0.000,0.0,0.0,0.0
03/01/2022,06:31:53,0.001,0.0,0.0,0.0
03/01/2022,06:32:54,0.000,0.0,0.0,0.0
03/01/2022,06:33:54,0.001,0.0,0.0,0.0
03/01/2022,06:34:53,0.001,0.0,0.0,0.0
03/01/2022,06:38:13,0.001,0.0,0.0,0.0
03/01/2022,06:39:03,-0.001,0.0,0.0,0.0
03/01/2022,06:40:02,-0.000,0.0,0.0,0.0
03/01/2022,06:41:02,0.001,0.0,0.0,0.0
03/01/2022,06:42:03,0.000,0.0,0.0,0.0
03/01/2022,06:43:02,0.001,0.0,0.0,0.0
03/01/2022,06:44:02,0.001,0.0,0.0,0.0
03/01/2022,06:45:02,0.001,0.0,0.0,0.0
03/01/2022,06:46:11,0.000,0.0,0.0,0.0
03/01/2022,06:47:02,0.000,0.0,0.0,0.0
03/01/2022,06:48:03,0.000,0.0,0.0,0.0
03/01/2022,06:49:02,0.000,0.0,0.0,0.0
03/01/2022,06:50:11,-0.001,0.0,0.0,0.0
03/01/2022,06:51:03,0.000,0.0,0.0,0.0
03/01/2022,06:52:02,0.000,0.0,0.0,0.0
03/01/2022,06:53:02,0.000,0.0,0.0,0.0
03/01/2022,06:54:03,-0.000,0.0,0.0,0.0
03/01/2022,06:55:02,-0.001,0.0,0.0,0.0
03/01/2022,06:56:02,0.000,0.0,0.0,0.0
03/01/2022,06:57:03,0.000,0.0,0.0,0.0
03/01/2022,06:58:03,0.000,0.0,0.0,0.0
03/01/2022,06:59:02,0.000,0.0,0.0,0.0
03/01/2022,07:00:03,0.000,0.0,0.0,0.0
03/01/2022,07:01:02,0.001,0.0,0.0,0.0
03/01/2022,07:02:02,0.000,0.0,0.0,0.0
03/01/2022,07:03:03,0.001,0.0,0.0,0.0
03/01/2022,07:04:04,0.000,0.0,0.0,0.0
03/01/2022,07:05:02,0.001,0.0,0.0,0.0
03/01/2022,07:06:04,0.000,0.0,0.0,0.0
03/01/2022,07:07:02,0.001,0.0,0.0,0.0
03/01/2022,07:08:03,-0.000,0.0,0.0,0.0
03/01/2022,07:09:02,0.000,0.0,0.0,0.0
03/01/2022,07:10:10,0.000,0.0,0.0,0.0
03/01/2022,07:11:03,0.000,0.0,0.0,0.0
03/01/2022,07:12:03,0.000,0.0,0.0,0.0
03/01/2022,07:13:10,0.000,0.0,0.0,0.0
03/01/2022,07:14:03,0.000,0.0,0.0,0.0
03/01/2022,07:15:02,0.001,0.0,0.0,0.0
03/01/2022,07:16:03,0.001,0.0,0.0,0.0
03/01/2022,07:17:02,0.000,0.0,0.0,0.0
03/01/2022,07:18:02,0.000,0.0,0.0,0.0
03/01/2022,07:19:02,0.000,0.0,0.0,0.0
03/01/2022,07:20:03,0.000,0.0,0.0,0.0
03/01/2022,07:21:02,0.000,0.0,0.0,0.0
03/01/2022,07:22:02,0.000,0.0,0.0,0.0
03/01/2022,07:23:03,0.001,0.0,0.0,0.0
03/01/2022,07:24:02,0.000,0.0,0.0,0.0
03/01/2022,07:25:02,0.001,0.0,0.0,0.0
03/01/2022,07:26:11,-0.000,0.0,0.0,0.0
03/01/2022,07:27:02,0.000,0.0,0.0,0.0
03/01/2022,07:28:03,-0.001,0.0,0.0,0.0
03/01/2022,07:29:02,0.000,0.0,0.0,0.0
03/01/2022,07:30:02,0.000,0.0,0.0,0.0
03/01/2022,07:31:03,0.000,0.0,0.0,0.0
03/01/2022,07:32:02,0.000,0.0,0.0,0.0
03/01/2022,07:33:02,0.001,0.0,0.0,0.0
03/01/2022,07:34:03,0.000,0.0,0.0,0.0
03/01/2022,07:35:03,0.000,0.0,0.0,0.0
03/01/2022,07:36:02,0.000,0.0,0.0,0.0
03/01/2022,07:37:02,0.001,0.0,0.0,0.0
03/01/2022,07:38:03,0.000,0.0,0.0,0.0
03/01/2022,07:39:02,0.001,0.0,0.0,0.0
03/01/2022,07:40:02,-0.001,0.0,0.0,0.0
03/01/2022,07:41:02,0.000,0.0,0.0,0.0
03/01/2022,07:42:11,0.000,0.0,0.0,0.0
03/01/2022,07:43:02,0.001,0.0,0.0,0.0
03/01/2022,07:44:02,0.000,0.0,0.0,0.0
03/01/2022,07:44:54,0.000,0.0,0.0,0.0
03/01/2022,07:46:04,0.000,0.0,0.0,0.0
03/01/2022,07:47:02,0.000,0.0,0.0,0.0
03/01/2022,07:48:03,0.001,0.0,0.0,0.0
03/01/2022,07:49:03,0.001,0.0,0.0,0.0
03/01/2022,07:50:03,0.001,0.0,0.0,0.0
03/01/2022,07:51:03,0.001,0.0,0.0,0.0
03/01/2022,07:52:02,0.001,0.0,0.0,0.0
03/01/2022,07:53:04,0.001,0.0,0.0,0.0
03/01/2022,07:54:03,0.001,0.0,0.0,0.0
03/01/2022,07:55:03,0.001,0.0,0.0,0.0
03/01/2022,07:56:03,0.001,0.0,0.0,0.0
03/01/2022,07:57:02,0.001,0.0,0.0,0.0
03/01/2022,07:58:03,0.001,0.0,0.0,0.0
03/01/2022,07:59:03,0.001,0.0,0.0,0.0
03/01/2022,08:00:03,0.001,0.0,0.0,0.0
03/01/2022,08:01:03,0.001,0.0,0.0,0.0
03/01/2022,08:02:02,0.001,0.0,0.0,0.0
03/01/2022,08:03:02,0.001,0.0,0.0,0.0
03/01/2022,08:04:03,0.002,0.0,0.0,0.0
03/01/2022,08:05:03,0.001,0.0,0.0,0.0
03/01/2022,08:06:03,0.001,0.0,0.0,0.0
03/01/2022,08:07:03,0.002,0.0,0.0,0.0
03/01/2022,08:08:02,0.002,0.0,0.0,0.0
03/01/2022,08:09:03,0.002,0.0,0.0,0.0
03/01/2022,08:10:02,0.002,0.0,0.0,0.0
03/01/2022,08:11:03,0.002,0.0,0.0,0.0
03/01/2022,08:12:02,0.002,0.0,0.0,0.0
03/01/2022,08:13:02,0.002,0.0,0.0,0.0
03/01/2022,08:14:02,0.002,0.0,0.0,0.0
03/01/2022,08:15:02,0.003,0.0,0.0,0.0
03/01/2022,08:16:03,0.003,0.0,0.0,0.0
03/01/2022,08:17:02,0.003,0.0,0.0,0.0
03/01/2022,08:18:03,0.003,0.0,0.0,0.0
03/01/2022,08:19:11,0.004,0.0,0.0,0.0
03/01/2022,08:20:03,0.004,0.0,0.0,0.0
03/01/2022,08:21:03,0.004,0.0,0.0,0.0
03/01/2022,08:22:11,0.004,0.0,0.0,0.0
03/01/2022,08:23:02,0.003,0.0,0.0,0.0
03/01/2022,08:24:03,0.004,0.0,0.0,0.0
03/01/2022,08:25:02,0.004,0.0,0.0,0.0
03/01/2022,08:26:02,0.005,0.0,0.0,0.0
03/01/2022,08:26:56,0.005,0.0,0.0,0.0
03/01/2022,08:28:04,0.005,0.0,0.0,0.0
03/01/2022,08:29:03,0.005,0.0,0.0,0.0
03/01/2022,08:29:56,0.005,0.0,0.0,0.0
03/01/2022,08:31:03,0.006,0.0,0.0,0.0
03/01/2022,08:32:03,0.006,0.0,0.0,0.0
03/01/2022,08:33:02,0.006,0.0,0.0,0.0
03/01/2022,08:34:03,0.006,0.0,0.0,0.0
03/01/2022,08:35:10,0.006,0.0,0.0,0.0
03/01/2022,08:36:02,0.005,0.0,0.0,0.0
03/01/2022,08:37:03,0.006,0.0,0.0,0.0
03/01/2022,08:38:04,0.006,0.0,0.0,0.0
03/01/2022,08:39:02,0.005,0.0,0.0,0.0
03/01/2022,08:40:03,0.006,0.0,0.001,0.001
03/01/2022,08:41:02,0.008,0.0,0.001,0.0
03/01/2022,08:42:02,0.008,0.0,0.001,0.0
03/01/2022,08:43:02,0.009,0.0,0.001,0.0
03/01/2022,08:44:03,0.009,0.0,0.001,0.0
03/01/2022,08:45:02,0.009,0.0,0.001,0.0
03/01/2022,08:46:02,0.009,0.0,0.001,0.0
03/01/2022,08:47:03,0.011,0.0,0.002,0.001
03/01/2022,08:48:03,0.010,0.0,0.002,0.0
03/01/2022,08:49:03,0.011,0.0,0.002,0.0
03/01/2022,08:50:03,0.010,0.0,0.002,0.0
03/01/2022,08:51:10,0.011,0.0,0.002,0.0
03/01/2022,08:52:02,0.011,0.0,0.002,0.0
03/01/2022,08:53:03,0.011,0.0,0.003,0.001
03/01/2022,08:54:11,0.012,0.0,0.003,0.0
03/01/2022,08:55:02,0.013,0.0,0.003,0.0
03/01/2022,08:56:02,0.013,0.0,0.003,0.0
03/01/2022,08:57:03,0.014,0.0,0.003,0.0
03/01/2022,08:58:02,0.014,0.0,0.004,0.001
03/01/2022,08:59:02,0.014,0.0,0.004,0.0
03/01/2022,09:00:02,0.015,0.0,0.004,0.0
03/01/2022,09:01:03,0.014,0.0,0.004,0.0
03/01/2022,09:02:03,0.015,0.0,0.005,0.001
03/01/2022,09:03:19,0.014,0.0,0.005,0.0
03/01/2022,09:04:02,0.014,0.0,0.005,0.0
03/01/2022,09:05:03,0.015,0.0,0.005,0.0
03/01/2022,09:06:04,0.016,0.0,0.006,0.001
03/01/2022,09:07:11,0.017,0.0,0.006,0.0
03/01/2022,09:08:02,0.018,0.0,0.006,0.0
03/01/2022,09:09:03,0.018,0.0,0.007,0.001
03/01/2022,09:10:03,0.018,0.0,0.007,0.0
03/01/2022,09:11:03,0.019,0.0,0.007,0.0
03/01/2022,09:12:02,0.019,0.0,0.007,0.0
03/01/2022,09:13:04,0.020,0.0,0.008,0.001
03/01/2022,09:14:02,0.020,0.0,0.008,0.0
03/01/2022,09:15:02,0.020,0.0,0.008,0.0
03/01/2022,09:16:02,0.020,0.0,0.009,0.001
03/01/2022,09:17:03,0.022,0.0,0.009,-0.0
03/01/2022,09:18:02,0.021,0.0,0.009,-0.0
03/01/2022,09:19:02,0.022,0.0,0.01,0.001
03/01/2022,09:20:03,0.022,0.0,0.01,0.0
03/01/2022,09:21:02,0.023,0.0,0.011,0.001
03/01/2022,09:22:03,0.023,0.0,0.011,-0.0
03/01/2022,09:23:02,0.023,0.0,0.011,-0.0
03/01/2022,09:24:03,0.025,0.0,0.012,0.001
03/01/2022,09:25:03,0.024,0.0,0.012,0.0
03/01/2022,09:26:03,0.025,0.0,0.013,0.001
03/01/2022,09:27:02,0.025,0.0,0.013,-0.0
03/01/2022,09:28:02,0.026,0.0,0.013,-0.0
03/01/2022,09:29:03,0.026,0.0,0.014,0.001
03/01/2022,09:30:03,0.027,0.0,0.014,0.0
03/01/2022,09:31:03,0.028,0.0,0.015,0.001
03/01/2022,09:32:02,0.028,0.0,0.015,0.0
03/01/2022,09:33:03,0.029,0.0,0.016,0.001
03/01/2022,09:34:11,0.030,0.0,0.016,0.0
03/01/2022,09:35:02,0.029,0.0,0.017,0.001
03/01/2022,09:36:03,0.030,0.0,0.017,0.0
03/01/2022,09:37:03,0.030,0.0,0.018,0.001
03/01/2022,09:38:02,0.031,0.0,0.018,-0.0
03/01/2022,09:39:02,0.031,0.0,0.019,0.001
03/01/2022,09:40:03,0.031,0.0,0.019,0.0
03/01/2022,09:41:03,0.031,0.0,0.02,0.001
03/01/2022,09:42:03,0.032,0.0,0.02,0.0
03/01/2022,09:43:04,0.032,0.0,0.021,0.001
03/01/2022,09:44:03,0.032,0.0,0.021,0.0
03/01/2022,09:45:11,0.033,0.0,0.022,0.001
03/01/2022,09:46:02,0.034,0.0,0.022,-0.0
03/01/2022,09:47:11,0.033,0.0,0.023,0.001
03/01/2022,09:48:02,0.035,0.0,0.024,0.001
03/01/2022,09:48:55,0.035,0.0,0.024,0.0
03/01/2022,09:50:03,0.036,0.0,0.025,0.001
03/01/2022,09:51:02,0.037,0.0,0.025,0.0
03/01/2022,09:52:03,0.036,0.0,0.026,0.001
03/01/2022,09:53:11,0.038,0.0,0.027,0.001
03/01/2022,09:54:02,0.037,0.0,0.027,-0.0
03/01/2022,09:55:03,0.038,0.0,0.028,0.001
03/01/2022,09:56:02,0.039,0.0,0.028,0.0
03/01/2022,09:57:02,0.039,0.0,0.029,0.001
03/01/2022,09:58:03,0.040,0.0,0.03,0.001
03/01/2022,09:59:03,0.041,0.0,0.03,0.0
03/01/2022,10:00:04,0.041,0.0,0.031,0.001
03/01/2022,10:01:03,0.043,0.0,0.032,0.001
03/01/2022,10:02:03,0.042,0.0,0.032,0.0
03/01/2022,10:03:11,0.041,0.0,0.033,0.001
03/01/2022,10:04:02,0.043,0.0,0.034,0.001
03/01/2022,10:05:03,0.043,0.0,0.035,0.001
03/01/2022,10:06:02,0.043,0.0,0.035,0.0
03/01/2022,10:07:02,0.044,0.0,0.036,0.001
03/01/2022,10:08:03,0.044,0.0,0.037,0.001
03/01/2022,10:09:03,0.045,0.0,0.038,0.001
03/01/2022,10:10:03,0.046,0.0,0.038,0.0
03/01/2022,10:11:03,0.047,0.0,0.039,0.001
03/01/2022,10:12:03,0.047,0.0,0.04,0.001
03/01/2022,10:13:03,0.048,0.0,0.041,0.001
03/01/2022,10:14:02,0.049,0.0,0.041,0.0
03/01/2022,10:15:02,0.049,0.0,0.042,0.001
03/01/2022,10:16:11,0.049,0.0,0.043,0.001
03/01/2022,10:17:03,0.050,0.0,0.044,0.001
03/01/2022,10:18:03,0.051,0.0,0.045,0.001
03/01/2022,10:19:04,0.051,0.0,0.046,0.001
03/01/2022,10:20:03,0.051,0.0,0.046,0.0
03/01/2022,10:21:03,0.052,0.0,0.047,0.001
03/01/2022,10:22:11,0.053,0.0,0.048,0.001
03/01/2022,10:23:03,0.052,0.0,0.049,0.001
03/01/2022,10:24:03,0.053,0.0,0.05,0.001
03/01/2022,10:25:03,0.054,0.0,0.051,0.001